Regional Weather Roundup
Issued by NWS Portland, ME

Current Version | Previous Version | Text Only | Print | Product List | Glossary Off
Versions: 1 2 3 4 5 6 7 8 9 10 11 12 13 14 15 16 17 18 19 20 21 22 23 24 25 26 27 28 29 30 31 32 33 34 35 36 37 38 39 40 41 42 43 44 45 46 47 48 49 50
704 ASUS41 KGYX 201710 RWRGYX WEATHER ROUNDUP FOR MAINE AND NEW HAMPSHIRE NATIONAL WEATHER SERVICE GRAY ME 100 PM EDT MON MAY 20 2019 MEZ002-005-006-010-012-015-018-020-021-024-026-027-029-201800- MAINE CITY SKY/WX TMP DP RH WIND PRES REMARKS PORTLAND PTSUNNY 63 58 83 S5 29.69F SANFORD FAIR 78 64 61 SW10 29.69F BAR HARBOR FOG 54 54 100 SW7 29.73F VSB 1 WISCASSET CLOUDY 59 57 93 SW3 29.72F ROCKLAND CLOUDY 54 54 100 CALM 29.71F FOG FRYEBURG FAIR 78 62 57 SW16 29.68F LEWISTONAUBURN PTSUNNY 64 61 90 SE8 29.68F AUGUSTA CLOUDY 56 55 97 CALM 29.71F WATERVILLE LGT RAIN 57 56 96 VRB3 29.68F BANGOR CLOUDY 57 54 89 SE3 29.70F GREENVILLE N/A 65 57 75 SE10 29.64F MILLINOCKET CLOUDY 56 51 84 SE6 29.70F HOULTON CLOUDY 52 49 89 CALM 29.70F PRESQUE ISLE CLOUDY 50 48 93 SE10 29.71F FRENCHVILLE FOG 50 46 86 SE12 29.70S VSB 1/4 CARIBOU CLOUDY 51 47 86 SE9 29.70F $$ NHZ002-005-008-009-011-012-014-201800- NEW HAMPSHIRE CITY SKY/WX TMP DP RH WIND PRES REMARKS PORTSMOUTH MOSUNNY 81 63 54 W8 29.67F ROCHESTER PTSUNNY 79 63 57 VRB6 29.69F NASHUA PTSUNNY 81 65 58 VRB7 29.71F MANCHESTER FAIR 81 62 52 SW9 29.69F CONCORD FAIR 79 61 53 W10G20 29.70F LACONIA FAIR 76 64 66 SW14 29.70F PLYMOUTH PTSUNNY 73 62 66 CALM 29.69F BERLIN FAIR 77 58 51 SW8G22 29.66F WHITEFIELD CLOUDY 73 58 59 SW8 29.68F JAFFREY PTSUNNY 76 60 57 W13G21 29.75F KEENE PTSUNNY 76 64 66 SW12 29.73F LEBANON FAIR 78 61 55 SW10 29.69F MT WASHINGTON FOG 48 48 100 W45G55 N/A VSB 0 $$ VTZ005-007-008-201800- VERMONT CITY SKY/WX TMP DP RH WIND PRES REMARKS ST JOHNSBURY N/A 74 63 68 MISG 29.64F MONTPELIER CLOUDY 72 59 63 SW12 29.73S BURLINGTON PTSUNNY 76 63 64 S17G23 29.64F $$ MAZ007-012-024-CTZ003-RIZ002-NYZ038-NYZ072-201800- SOUTHERN NEW ENGLAND AND NY CITY SKY/WX TMP DP RH WIND PRES REMARKS BOSTON FAIR 82 67 60 SW13G22 29.72F WORCESTER FAIR 76 65 68 SW13G20 29.77F NANTUCKET FAIR 63 57 81 SW17G25 29.83F PROVIDENCE FAIR 82 66 58 SW8G17 29.75F HARTFORD PTSUNNY 84 63 49 SW15 29.74F ALBANY PTSUNNY 78 58 49 SW13 29.72F NEW YORK CITY FAIR 86 59 39 W16 29.78F $$ ANZ081-ANZ082-ANZ150-NHZ014-MEZ023>029-201800- COASTAL MARINE OBSERVATIONS STATION/POSITION TIME TEMP WIND PRES WAVE AIR SEA DIR/SP/G HT/PER (UTC) (F) (DEG/KT/KT) (MB) (FT/S) ISLE OF SHOALS 1600 65 200/ 17/ 18 1006.2F JEFFREYS LEDGE 1608 50 N/A 3/ 6 GEORGES BANK BUO 1650 53 44 190/ 16/ 19 1014.0F 5/ 5 $$ .............KEY.............. WCI - WIND CHILL TC - TEMPERATURE IN CELSIUS VSB - VISIBILITY IN MILES HX - HEAT INDEX FAIR- INDICATES FEW OR NO CLOUDS BELOW 12,000 FT, WITH NO SIGNIFICANT WEATHER AND/OR OBSTRUCTIONS TO VISIBILITY.

USA.gov is the U.S. government's official web portal to all federal, state and local government web resources and services.